This is the latest recevied weather packets stored in our database for station/object IU0KRR-10. If no packets are shown the sender has not sent any weather packets the latest 10 day(s).
| Time | Temp. | Humidity | Pressure | Rain* | Wind** | Luminosity | Snow |
|---|---|---|---|---|---|---|---|
| 1778003957 | 22.22° C | 40% | 871.4 hPa | - | - | - | - |
| 1778003056 | 22.22° C | 40% | 871.3 hPa | - | - | - | - |
| 1778002156 | 22.78° C | 40% | 871.4 hPa | - | - | - | - |
| 1778001256 | 22.22° C | 41% | 871.3 hPa | - | - | - | - |
| 1778000356 | 22.22° C | 41% | 871.4 hPa | - | - | - | - |
| 1777999455 | 22.22° C | 41% | 871.4 hPa | - | - | - | - |
| 1777998594 | 22.78° C | 40% | 871.5 hPa | - | - | - | - |
| 1777998554 | 22.78° C | 40% | 871.5 hPa | - | - | - | - |
| 1777997654 | 22.78° C | 40% | 871.5 hPa | - | - | - | - |
| 1777996754 | 22.78° C | 41% | 871.6 hPa | - | - | - | - |
| 1777995850 | 22.78° C | 40% | 871.8 hPa | - | - | - | - |
| 1777994985 | 22.22° C | 41% | 871.8 hPa | - | - | - | - |
| 1777994950 | 22.22° C | 41% | 871.8 hPa | - | - | - | - |
| 1777994049 | 22.22° C | 41% | 871.8 hPa | - | - | - | - |
| 1777993149 | 22.22° C | 41% | 871.7 hPa | - | - | - | - |
| 1777992249 | 22.22° C | 41% | 871.9 hPa | - | - | - | - |
| 1777991349 | 22.22° C | 41% | 871.7 hPa | - | - | - | - |
| 1777990449 | 22.22° C | 41% | 871.8 hPa | - | - | - | - |
| 1777989548 | 21.67° C | 41% | 871.7 hPa | - | - | - | - |
| 1777988648 | 21.67° C | 42% | 871.8 hPa | - | - | - | - |
| 1777987748 | 21.11° C | 43% | 872 hPa | - | - | - | - |
| 1777986848 | 21.11° C | 43% | 871.8 hPa | - | - | - | - |
| 1777985947 | 20.56° C | 43% | 871.8 hPa | - | - | - | - |
| 1777985047 | 20.56° C | 43% | 872 hPa | - | - | - | - |
| 1777984147 | 20° C | 43% | 871.9 hPa | - | - | - | - |
* Rain since midnight (hover to see other rain measurements)
** Current wind speed in m/s (hover to see current wind gust speed)